QPF
0.00 0.00 0.00 0.00 0.00 0.00 0.00 0.00 0.00 0.00 0.00 0.00 0.00 0.00 0.00 0.00 0.00 0.00 0.00 0.00 0.00 0.00 0.00 0.00 0.00 0.00 0.00 0.00 0.00 0.00 0.00 0.00 0.00 0.00 0.00 0.00 0.00 0.00 0.00 0.00 0.00 0.00 0.00 0.00
0.00 0.00 0.00 0.00 0.00 0.00 0.00 0.00 0.00 0.00 0.00 0.00 0.00 0.00 0.00 0.00 0.00 0.00 0.00 0.00 0.00 0.00 0.00 0.00 0.00 0.00 0.00 0.00 0.00 0.00 0.00 0.00 0.00 0.00 0.00 0.00 0.00 0.00 0.00 0.00 0.00 0.00 0.00 0.00
0.00 0.00 0.00 0.00 0.00 0.00 0.00 0.00 0.00 0.00 0.00 0.00 0.00 0.00 0.00 0.00 0.00 0.00 0.00 0.00 0.00 0.00 0.00 0.00 0.00 0.00 0.00 0.00 0.00 0.00 0.00 0.00 0.00 0.00 0.00 0.00 0.00 0.00 0.00 0.00 0.00 0.00 0.00 0.00
0.00 0.00 0.00 0.00 0.00 0.00 0.00 0.00 0.00 0.00 0.00 0.00 0.00 0.00 0.00 0.00 0.00 0.00 0.00 0.00 0.00 0.00 0.00 0.00 0.00 0.00 0.00 0.00 0.00 0.00 0.00 0.00 0.00 0.00 0.00 0.00 0.00 0.00 0.00 0.00 0.00 0.00 0.00 0.00
0.00 0.00 0.00 0.00 0.00 0.00 0.00 0.00 0.00 0.00 0.00 0.00 0.00 0.00 0.00 0.00 0.00 0.00 0.00 0.00 0.00 0.00 0.00 0.00 0.00 0.00 0.00 0.00 0.00 0.00 0.00 0.00 0.00 0.00 0.00 0.00 0.00 0.00 0.00 0.00 0.00 0.00 0.00 0.00
0.00 0.00 0.00 0.00 0.00 0.00 0.00 0.00 0.00 0.00 0.00 0.00 0.00 0.00 0.00 0.00 0.00 0.00 0.00 0.00 0.00 0.00 0.00 0.00 0.00 0.00 0.00 0.00 0.00 0.00 0.00 0.00 0.00 0.00 0.00 0.00 0.00 0.00 0.00 0.00 0.00 0.00 0.00 0.00
0.00 0.00 0.00 0.00 0.00 0.00 0.00 0.00 0.00 0.00 0.00 0.00 0.00 0.00 0.00 0.00 0.00 0.00 0.00 0.00 0.00 0.00 0.00 0.00 0.00 0.00 0.00 0.00 0.00 0.00 0.00 0.00 0.00 0.00 0.00 0.00 0.00 0.00 0.00 0.00 0.00 0.00 0.00 0.00
0.00 0.00 0.00 0.00 0.00 0.00 0.00 0.00 0.00 0.00 0.00 0.00 0.00 0.00 0.00 0.00 0.00 0.00 0.00 0.00 0.00 0.00 0.00 0.00 0.00 0.00 0.00 0.00 0.00 0.00 0.00 0.00 0.00 0.00 0.00 0.00 0.00 0.00 0.00 0.00 0.00 0.00 0.00 0.00
0.00 0.00 0.00 0.00 0.00 0.00 0.00 0.00 0.00 0.00 0.00 0.00 0.00 0.00 0.00 0.00 0.00 0.00 0.00 0.00 0.00 0.00 0.00 0.00 0.00 0.00 0.00 0.00 0.00 0.00 0.00 0.00 0.00 0.00 0.00 0.00 0.00 0.00 0.00 0.00 0.00 0.00 0.00 0.00
0.00 0.00 0.00 0.00 0.00 0.00 0.00 0.00 0.00 0.00 0.00 0.00 0.00 0.00 0.00 0.00 0.00 0.00 0.00 0.00 0.00 0.00 0.00 0.00 0.00 0.00 0.00 0.00 0.00 0.00 0.00 0.00 0.00 0.00 0.00 0.00 0.00 0.00 0.00 0.00 0.00 0.00 0.00 0.00
0.00 0.00 0.00 0.00 0.00 0.00 0.00 0.00 0.00 0.00 0.00 0.00 0.00 0.00 0.00 0.00 0.00 0.00 0.00 0.00 0.00 0.00 0.00 0.00 0.00 0.00 0.00 0.00 0.00 0.00 0.00 0.00 0.00 0.00 0.00 0.00 0.00 0.00 0.00 0.00 0.00 0.00 0.00 0.00
0.00 0.00 0.00 0.00 0.00 0.00 0.00 0.00 0.00 0.00 0.00 0.00 0.00 0.00 0.00 0.00 0.00 0.00 0.00 0.00 0.00 0.00 0.00 0.00 0.00 0.00 0.00 0.00 0.00 0.00 0.00 0.00 0.00 0.00 0.00 0.00 0.00 0.00 0.00 0.00 0.00 0.00 0.00 0.00
0.00 0.00 0.00 0.00 0.00 0.00 0.00 0.00 0.00 0.00 0.01 0.01 0.01 0.00 0.00 0.00 0.00 0.00 0.00 0.00 0.00 0.00 0.01 0.04 0.04 0.00 0.00 0.00 0.00 0.00 0.00 0.00 0.00 0.00 0.00 0.00 0.00 0.00 0.00 0.00 0.00 0.00 0.00 0.00
0.00 0.00 0.00 0.00 0.00 0.00 0.00 0.00 0.00 0.03 0.05 0.01 0.00 0.00 0.00 0.00 0.00 0.00 0.00 0.00 0.00 0.06 0.22 0.20 0.06 0.00 0.00 0.03 0.01 0.00 0.00 0.00 0.00 0.00 0.00 0.00 0.00 0.00 0.00 0.00 0.00 0.00 0.00 0.00
0.00 0.00 0.00 0.00 0.00 0.00 0.00 0.00 0.00 0.01 0.01 0.01 0.00 0.00 0.00 0.00 0.00 0.00 0.00 0.00 0.01 0.02 0.10 0.08 0.06 0.07 0.10 0.13 0.05 0.01 0.01 0.00 0.00 0.00 0.00 0.00 0.00 0.00 0.00 0.00 0.00 0.00 0.00 0.00
0.00 0.00 0.00 0.00 0.00 0.00 0.00 0.00 0.00 0.00 0.00 0.00 0.00 0.00 0.00 0.00 0.00 0.00 0.00 0.00 0.00 0.03 0.07 0.29 0.32 0.44 0.26 0.26 0.12 0.08 0.07 0.04 0.00 0.00 0.00 0.00 0.00 0.00 0.00 0.00 0.00 0.00 0.00 0.00
0.00 0.00 0.00 0.00 0.00 0.00 0.00 0.00 0.00 0.00 0.00 0.00 0.00 0.00 0.00 0.00 0.00 0.00 0.00 0.00 0.00 0.00 0.04 0.15 0.26 0.24 0.31 0.54 0.26 0.16 0.09 0.04 0.02 0.00 0.00 0.00 0.00 0.00 0.00 0.00 0.00 0.01 0.00 0.00
0.00 0.00 0.03 0.02 0.00 0.01 0.00 0.00 0.00 0.00 0.00 0.00 0.00 0.00 0.00 0.00 0.00 0.00 0.00 0.00 0.00 0.00 0.03 0.04 0.03 0.01 0.03 0.05 0.09 0.09 0.07 0.09 0.08 0.03 0.00 0.01 0.01 0.01 0.01 0.01 0.00 0.01 0.00 0.01
0.01 0.03 0.08 0.04 0.01 0.00 0.00 0.00 0.00 0.00 0.00 0.00 0.00 0.00 0.00 0.00 0.00 0.00 0.00 0.00 0.00 0.00 0.01 0.00 0.00 0.00 0.00 0.01 0.01 0.06 0.06 0.11 0.10 0.06 0.06 0.04 0.04 0.06 0.04 0.02 0.01 0.01 0.00 0.02
0.01 0.01 0.08 0.08 0.06 0.01 0.00 0.00 0.00 0.00 0.00 0.00 0.00 0.00 0.00 0.00 0.00 0.00 0.00 0.00 0.00 0.00 0.00 0.00 0.00 0.00 0.00 0.00 0.00 0.00 0.02 0.03 0.07 0.05 0.07 0.12 0.14 0.08 0.06 0.04 0.01 0.00 0.01 0.04
0.00 0.01 0.02 0.02 0.05 0.01 0.00 0.00 0.00 0.01 0.00 0.00 0.00 0.00 0.00 0.00 0.00 0.00 0.00 0.00 0.00 0.00 0.00 0.00 0.00 0.00 0.00 0.00 0.00 0.00 0.00 0.00 0.07 0.10 0.10 0.18 0.20 0.12 0.11 0.08 0.02 0.01 0.02 0.01
0.03 0.04 0.02 0.02 0.02 0.00 0.00 0.01 0.01 0.00 0.00 0.00 0.00 0.00 0.00 0.00 0.00 0.00 0.00 0.00 0.00 0.00 0.00 0.00 0.00 0.00 0.00 0.00 0.00 0.00 0.00 0.01 0.04 0.29 0.35 0.21 0.21 0.13 0.08 0.08 0.03 0.01 0.00 0.00
0.00 0.01 0.01 0.02 0.01 0.00 0.00 0.01 0.00 0.00 0.00 0.01 0.02 0.01 0.00 0.00 0.00 0.00 0.00 0.00 0.00 0.00 0.00 0.00 0.00 0.00 0.00 0.00 0.00 0.00 0.00 0.05 0.16 0.73 0.83 0.30 0.17 0.11 0.06 0.04 0.00 0.00 0.00 0.00
0.00 0.00 0.00 0.00 0.00 0.00 0.00 0.00 0.00 0.02 0.02 0.00 0.00 0.00 0.00 0.00 0.00 0.00 0.00 0.00 0.00 0.00 0.00 0.00 0.00 0.00 0.00 0.00 0.01 0.01 0.06 0.24 0.46 0.89 0.85 0.59 0.10 0.04 0.02 0.00 0.00 0.00 0.00 0.00
0.00 0.00 0.00 0.00 0.00 0.04 0.00 0.01 0.02 0.01 0.00 0.00 0.00 0.00 0.00 0.00 0.00 0.00 0.00 0.00 0.00 0.00 0.00 0.00 0.00 0.00 0.00 0.00 0.02 0.09 0.34 0.47 0.56 0.67 0.63 0.43 0.05 0.01 0.00 0.00 0.00 0.00 0.00 0.00
0.00 0.00 0.02 0.06 0.03 0.03 0.01 0.00 0.00 0.01 0.00 0.00 0.01 0.00 0.00 0.00 0.00 0.00 0.00 0.00 0.00 0.00 0.00 0.00 0.00 0.00 0.00 0.00 0.06 0.24 0.32 0.32 0.48 0.36 0.25 0.08 0.01 0.00 0.00 0.00 0.00 0.00 0.00 0.00
MSLP
1011.19 1011.82 1012.34 1012.49 1012.53 1012.54 1012.68 1012.67 1012.37 1011.60 1010.86 1010.66 1010.04 1009.06 1008.64 1008.01 1007.87 1007.40 1006.69 1006.43 1006.08 1005.66 1005.18 1004.82 1004.80 1004.71 1004.64 1004.26 1003.94 1003.58 1003.28 1003.42 1004.03 1003.77 1004.05 1004.51 1004.81 1004.80 1005.45 1005.10 1005.13 1005.71 1005.83 1006.33
1011.85 1012.01 1011.77 1011.88 1011.96 1012.23 1012.48 1012.52 1012.39 1011.85 1011.20 1010.90 1010.18 1008.39 1007.86 1007.58 1006.91 1006.66 1006.46 1006.25 1005.85 1005.63 1005.39 1005.37 1005.24 1005.29 1005.16 1005.02 1004.33 1004.02 1003.28 1002.93 1003.18 1003.03 1003.06 1002.99 1003.46 1003.82 1004.13 1004.39 1004.70 1004.87 1005.23 1005.87
1011.76 1011.46 1011.31 1011.49 1011.48 1011.84 1012.11 1012.27 1012.31 1012.38 1011.83 1011.45 1010.88 1009.09 1007.79 1006.93 1006.38 1006.19 1006.00 1005.80 1005.79 1005.91 1006.22 1005.98 1005.60 1005.49 1005.08 1005.03 1004.72 1004.20 1003.17 1002.53 1002.73 1002.48 1002.86 1003.23 1003.13 1003.14 1003.66 1003.89 1003.99 1004.05 1004.26 1005.09
1011.42 1010.94 1010.99 1011.05 1011.27 1011.59 1011.90 1011.83 1012.21 1012.45 1012.62 1012.60 1011.66 1010.41 1009.05 1007.60 1007.04 1006.53 1006.07 1006.04 1005.97 1005.68 1005.62 1006.14 1005.73 1005.11 1005.08 1004.63 1004.08 1003.93 1003.13 1002.27 1001.97 1002.00 1002.37 1002.64 1002.53 1002.13 1002.04 1002.63 1002.69 1003.42 1003.76 1004.39
1011.10 1010.96 1010.92 1010.98 1010.99 1011.34 1011.68 1011.84 1012.38 1012.66 1013.01 1013.05 1012.55 1011.75 1008.87 1007.82 1007.70 1007.47 1007.08 1006.74 1006.51 1006.10 1005.65 1005.58 1005.05 1005.25 1005.01 1004.95 1004.71 1003.68 1002.85 1002.11 1001.51 1001.44 1001.58 1001.77 1001.75 1001.41 1001.07 1001.58 1002.27 1002.99 1003.04 1003.41
1011.22 1010.80 1010.74 1010.59 1010.65 1011.24 1011.72 1012.32 1012.92 1013.57 1014.06 1013.94 1012.74 1012.22 1008.70 1007.81 1007.59 1007.30 1006.52 1006.33 1006.44 1006.48 1006.11 1005.59 1005.14 1004.68 1004.23 1003.99 1003.84 1003.43 1002.46 1001.57 1001.39 1000.86 1000.95 1000.84 1001.01 1001.01 1001.07 1001.05 1001.70 1002.34 1002.73 1003.21
1011.49 1011.09 1010.70 1010.62 1011.03 1011.65 1012.45 1013.53 1014.72 1015.01 1015.31 1014.50 1013.19 1012.21 1009.00 1007.91 1007.03 1006.91 1006.58 1006.38 1006.09 1005.88 1005.65 1005.44 1005.01 1004.37 1003.92 1003.36 1002.93 1002.42 1001.91 1001.21 1000.79 1000.48 1000.24 1000.02 1000.14 1000.10 1000.16 1000.01 1000.32 1001.53 1001.99 1002.55
1012.28 1011.89 1011.20 1011.07 1011.35 1012.02 1012.86 1014.16 1015.81 1016.00 1015.96 1014.86 1013.88 1011.33 1008.34 1007.33 1006.75 1006.53 1006.68 1006.71 1006.34 1006.04 1006.05 1005.70 1004.96 1004.54 1003.98 1003.11 1002.66 1001.88 1001.21 1000.44 999.98 999.53 999.31 999.04 999.26 999.27 999.38 999.32 999.60 1000.16 1000.82 1001.53
1012.93 1012.48 1011.62 1011.26 1011.54 1012.16 1013.06 1014.32 1015.05 1016.00 1016.14 1015.56 1013.41 1010.80 1008.29 1006.83 1006.49 1006.66 1006.63 1006.63 1006.42 1006.32 1006.15 1005.71 1005.04 1004.10 1003.21 1002.59 1001.90 1001.35 1000.67 999.70 999.27 998.76 998.38 998.07 998.10 998.25 998.34 998.49 998.69 999.21 1000.09 1000.92
1012.93 1013.08 1012.39 1011.96 1011.78 1012.08 1012.72 1013.82 1015.37 1016.80 1016.95 1015.74 1012.71 1010.98 1008.63 1007.31 1006.90 1006.92 1006.92 1006.59 1006.44 1006.30 1005.97 1005.27 1004.53 1003.75 1002.64 1001.56 1000.99 1000.37 999.75 998.75 997.95 997.23 997.01 996.92 996.91 997.11 997.48 998.19 998.27 998.63 999.55 1000.35
1013.22 1013.85 1013.39 1012.84 1012.45 1012.52 1013.30 1013.99 1015.16 1016.17 1016.24 1015.28 1013.02 1009.21 1007.35 1007.14 1006.90 1006.86 1006.94 1006.81 1006.40 1005.90 1005.56 1005.06 1003.92 1002.80 1002.02 1000.87 999.92 999.16 998.51 997.58 996.60 996.14 995.44 995.60 995.89 996.28 996.87 997.42 997.68 998.04 998.85 999.78
1013.44 1014.14 1014.24 1013.39 1012.25 1012.45 1012.96 1013.78 1014.61 1015.45 1015.18 1014.43 1013.16 1007.55 1006.95 1006.69 1006.49 1006.75 1006.32 1006.19 1005.83 1005.45 1005.21 1004.60 1003.35 1002.62 1001.81 1000.55 999.40 998.29 997.18 996.17 995.17 994.70 994.46 994.41 994.93 995.41 996.03 996.65 997.09 997.51 998.46 999.53
1013.50 1014.17 1014.58 1013.59 1013.14 1012.77 1012.90 1013.35 1013.58 1013.93 1014.20 1013.07 1012.34 1007.57 1006.29 1006.35 1006.60 1006.42 1005.93 1005.42 1005.05 1004.90 1004.66 1003.64 1002.91 1003.07 1002.00 1000.56 999.32 997.84 996.35 994.46 993.53 993.20 993.33 993.81 994.35 994.96 995.38 995.86 996.59 997.36 998.37 998.94
1013.31 1013.71 1014.00 1013.58 1012.81 1012.75 1012.62 1012.27 1012.57 1012.89 1012.53 1011.38 1009.37 1007.55 1006.47 1006.52 1006.30 1006.03 1005.36 1004.88 1004.60 1003.97 1003.32 1002.85 1002.21 1002.03 1001.16 1000.05 998.50 996.62 994.83 993.21 992.16 992.11 992.37 992.87 993.35 993.94 994.41 995.34 996.28 997.13 997.65 998.34
1013.23 1013.31 1013.39 1012.74 1012.41 1012.17 1011.63 1011.06 1010.84 1011.22 1010.41 1010.29 1007.02 1007.63 1006.06 1005.89 1005.78 1005.40 1005.04 1004.63 1003.95 1003.25 1002.83 1002.70 1002.50 1001.78 1000.91 999.14 997.81 996.17 994.35 992.25 990.98 991.05 991.29 991.84 992.48 993.37 994.12 995.26 995.99 996.48 997.17 998.10
1013.11 1013.13 1012.94 1012.47 1012.03 1011.54 1010.53 1009.51 1009.11 1008.90 1008.55 1008.15 1007.13 1006.45 1005.21 1005.11 1005.16 1004.92 1004.43 1003.95 1003.31 1002.78 1002.59 1002.07 1001.47 1000.56 999.73 999.33 998.26 996.81 994.11 991.76 990.38 989.77 990.38 991.14 992.20 992.95 993.80 994.77 995.23 996.19 997.16 997.97
1013.17 1013.14 1013.04 1011.97 1011.44 1010.79 1009.42 1007.42 1007.02 1006.87 1006.49 1006.43 1006.23 1004.94 1004.85 1004.66 1004.53 1004.23 1003.88 1003.40 1002.96 1002.43 1001.99 1001.42 1001.10 999.97 999.61 999.27 997.79 995.58 992.93 990.33 989.67 989.54 990.36 990.67 991.74 992.74 993.37 994.15 995.07 996.09 997.05 998.11
1012.38 1012.81 1012.98 1011.86 1011.55 1009.98 1007.13 1006.34 1006.13 1006.05 1005.60 1005.57 1005.35 1004.76 1004.52 1004.25 1003.89 1003.71 1003.46 1002.86 1002.19 1002.03 1001.88 1001.31 1000.33 999.70 998.52 997.09 997.71 996.33 992.08 990.64 989.87 989.99 990.68 990.55 991.40 992.22 993.16 994.15 995.17 996.23 997.24 998.22
1011.20 1012.04 1011.94 1011.38 1010.72 1008.77 1006.69 1005.89 1005.82 1005.84 1004.77 1004.94 1005.00 1004.66 1004.37 1004.14 1003.89 1003.16 1002.60 1002.17 1001.90 1001.37 1001.06 1000.82 999.63 998.78 997.95 996.30 994.63 993.97 992.60 991.51 990.57 990.15 990.64 991.08 991.60 992.36 993.28 994.40 995.56 996.54 997.39 998.34
1010.78 1011.48 1011.72 1010.95 1010.28 1008.92 1006.97 1005.96 1005.88 1005.97 1005.23 1004.54 1004.84 1004.97 1004.67 1004.38 1003.53 1002.28 1001.86 1001.65 1001.23 1001.18 1000.82 999.92 999.10 998.77 998.22 996.85 995.69 994.03 992.74 992.05 991.17 990.60 991.13 991.73 992.50 992.80 993.72 994.71 995.73 996.61 997.54 998.59
1010.99 1011.29 1011.14 1010.69 1010.00 1008.35 1006.49 1006.12 1006.04 1006.12 1005.45 1004.81 1004.90 1004.88 1004.64 1004.23 1003.68 1002.32 1001.68 1001.30 1000.90 1000.71 1000.23 999.56 999.12 998.43 997.43 996.60 995.48 994.13 992.71 992.34 991.94 991.48 991.71 992.49 993.02 993.41 994.02 995.09 995.55 996.89 998.09 999.03
1010.73 1010.76 1010.66 1010.25 1009.42 1007.98 1006.27 1006.39 1006.38 1005.42 1004.72 1004.80 1004.35 1004.18 1003.67 1003.04 1002.53 1002.28 1001.34 1001.07 1000.78 1000.34 999.86 999.35 998.81 997.91 997.05 995.96 995.01 994.25 993.31 992.77 992.80 992.75 992.54 992.60 993.32 993.98 994.75 995.04 996.30 997.40 998.24 999.51
1010.55 1010.45 1010.58 1010.17 1008.07 1006.61 1006.21 1005.74 1005.21 1005.13 1004.74 1004.27 1003.66 1002.90 1002.76 1002.41 1001.81 1001.39 1000.54 1000.31 999.97 999.66 998.93 998.69 998.36 997.57 996.41 995.79 994.87 993.80 993.22 993.00 993.18 993.28 992.70 993.25 993.93 994.35 994.88 995.74 996.80 998.01 998.91 999.80
1010.52 1010.18 1010.07 1009.49 1007.11 1006.49 1005.87 1005.21 1004.72 1004.58 1003.95 1003.45 1003.05 1002.69 1002.29 1001.74 1001.50 1000.72 1000.09 999.58 999.22 998.82 998.18 998.29 998.03 997.52 996.75 995.71 994.64 993.72 993.09 993.16 993.42 993.61 993.54 994.09 994.76 995.03 995.73 996.54 997.49 998.47 999.39 1000.14
1010.64 1010.17 1009.33 1008.53 1007.34 1006.83 1005.68 1004.62 1004.07 1003.68 1003.31 1002.81 1002.40 1001.80 1001.55 1001.27 1000.63 1000.30 999.57 998.68 998.00 997.68 997.30 997.29 997.56 997.20 996.47 995.44 994.46 993.50 992.55 992.73 992.70 992.61 993.31 993.55 995.39 995.77 996.74 998.09 998.97 999.14 999.77 999.81
1010.11 1009.53 1009.33 1008.10 1007.03 1006.48 1005.02 1003.98 1003.40 1003.23 1002.74 1002.18 1001.67 1000.99 1000.27 1000.13 999.60 999.53 998.47 997.71 997.00 996.76 996.54 996.81 996.84 996.49 995.83 995.12 994.19 993.46 992.79 992.30 992.29 991.83 992.81 994.77 995.56 996.41 997.18 998.22 999.73 1000.23 1000.33 1000.31
Thickness
5588 5578 5572 5578 5578 5583 5584 5581 5581 5592 5605 5605 5611 5623 5630 5643 5646 5653 5663 5670 5677 5690 5703 5713 5717 5722 5727 5737 5746 5757 5767 5770 5768 5776 5778 5777 5780 5785 5781 5789 5791 5789 5788 5784
5570 5567 5579 5581 5580 5578 5576 5575 5573 5584 5596 5597 5602 5624 5633 5638 5645 5649 5656 5663 5673 5680 5686 5693 5702 5711 5714 5719 5731 5740 5752 5762 5766 5773 5777 5781 5783 5782 5785 5786 5788 5788 5784 5782
5563 5574 5580 5578 5578 5574 5570 5568 5570 5569 5581 5584 5586 5601 5622 5634 5645 5648 5652 5660 5665 5667 5666 5671 5683 5693 5705 5710 5717 5727 5742 5754 5758 5766 5767 5768 5774 5780 5779 5774 5785 5787 5783 5780
5566 5576 5576 5573 5571 5567 5561 5570 5569 5566 5562 5555 5581 5563 5600 5617 5624 5632 5638 5641 5647 5658 5664 5662 5670 5681 5688 5700 5714 5719 5732 5743 5751 5757 5758 5761 5767 5776 5787 5785 5789 5784 5782 5778
5562 5568 5565 5564 5565 5565 5559 5568 5562 5562 5555 5552 5560 5543 5583 5606 5602 5606 5616 5622 5628 5639 5650 5655 5667 5670 5678 5685 5694 5708 5720 5732 5744 5748 5753 5756 5761 5773 5785 5784 5783 5780 5779 5778
5559 5566 5565 5562 5566 5561 5560 5555 5547 5531 5529 5523 5550 5549 5579 5586 5590 5594 5608 5613 5614 5617 5627 5641 5651 5663 5672 5680 5687 5695 5708 5722 5732 5743 5747 5753 5755 5763 5770 5779 5777 5773 5772 5768
5554 5558 5561 5562 5554 5549 5542 5525 5504 5510 5515 5525 5543 5540 5577 5578 5589 5584 5588 5593 5601 5606 5612 5622 5634 5648 5658 5668 5678 5688 5698 5712 5723 5732 5739 5748 5752 5760 5766 5776 5780 5770 5766 5763
5533 5535 5549 5553 5548 5540 5537 5522 5484 5497 5507 5519 5532 5533 5559 5573 5574 5571 5570 5573 5581 5587 5591 5600 5614 5624 5636 5653 5664 5677 5690 5707 5718 5728 5737 5745 5752 5759 5765 5771 5776 5774 5768 5761
5507 5527 5544 5547 5544 5537 5529 5515 5514 5501 5501 5472 5502 5528 5556 5564 5560 5552 5554 5558 5561 5565 5572 5579 5591 5608 5625 5638 5653 5667 5684 5702 5713 5723 5734 5743 5751 5756 5763 5770 5773 5770 5764 5758
5525 5512 5531 5536 5539 5535 5527 5521 5503 5448 5457 5445 5504 5511 5531 5544 5548 5543 5542 5549 5551 5549 5552 5564 5579 5592 5610 5630 5643 5661 5677 5697 5713 5726 5735 5743 5750 5757 5761 5760 5762 5762 5758 5753
5517 5505 5518 5525 5523 5518 5513 5501 5492 5464 5451 5459 5493 5526 5535 5537 5536 5536 5535 5536 5537 5540 5545 5551 5563 5580 5596 5616 5637 5657 5672 5691 5711 5723 5737 5743 5748 5752 5756 5755 5756 5756 5753 5750
5510 5483 5487 5504 5523 5522 5511 5499 5489 5457 5486 5469 5468 5529 5543 5539 5537 5526 5532 5534 5532 5535 5537 5541 5550 5563 5578 5602 5624 5645 5668 5688 5710 5723 5733 5741 5744 5748 5752 5752 5749 5751 5747 5743
5499 5482 5478 5502 5511 5509 5511 5500 5494 5485 5472 5482 5480 5523 5539 5529 5524 5526 5528 5530 5531 5529 5527 5535 5539 5539 5554 5578 5603 5628 5654 5686 5707 5722 5729 5733 5736 5739 5745 5747 5745 5743 5738 5737
5501 5481 5488 5490 5502 5488 5496 5511 5505 5495 5485 5492 5504 5515 5527 5523 5520 5520 5523 5525 5523 5528 5530 5530 5532 5536 5545 5559 5585 5616 5648 5679 5702 5715 5724 5730 5734 5739 5743 5739 5736 5735 5734 5733
5486 5476 5478 5499 5505 5503 5504 5511 5513 5502 5507 5491 5526 5508 5520 5518 5516 5515 5517 5519 5523 5525 5523 5520 5520 5526 5535 5554 5567 5596 5636 5673 5698 5711 5722 5729 5732 5733 5732 5729 5730 5732 5732 5728
5480 5476 5476 5487 5498 5498 5504 5517 5516 5516 5515 5511 5514 5513 5526 5522 5511 5511 5513 5515 5519 5520 5516 5520 5523 5530 5539 5543 5553 5579 5619 5658 5688 5711 5719 5722 5722 5724 5725 5725 5730 5728 5725 5722
5469 5465 5475 5484 5494 5492 5500 5524 5525 5524 5525 5519 5507 5526 5522 5519 5515 5514 5514 5514 5511 5515 5515 5520 5518 5529 5528 5539 5555 5585 5621 5659 5684 5701 5707 5714 5714 5716 5720 5723 5723 5722 5720 5714
5469 5472 5464 5479 5477 5488 5527 5529 5527 5523 5530 5521 5519 5523 5522 5519 5518 5513 5512 5513 5514 5511 5510 5517 5526 5534 5541 5539 5538 5575 5624 5649 5673 5686 5693 5707 5711 5713 5715 5717 5716 5714 5711 5706
5479 5471 5474 5479 5472 5490 5526 5525 5520 5514 5529 5523 5515 5517 5516 5512 5510 5518 5517 5516 5512 5513 5517 5522 5536 5541 5549 5562 5581 5596 5620 5641 5664 5682 5689 5697 5703 5706 5710 5708 5705 5704 5702 5699
5475 5470 5468 5477 5471 5458 5499 5516 5509 5502 5506 5518 5508 5502 5501 5502 5508 5521 5523 5519 5517 5514 5518 5529 5536 5541 5548 5563 5578 5599 5622 5639 5657 5677 5683 5687 5690 5697 5698 5698 5698 5697 5695 5690
5471 5466 5470 5474 5470 5477 5503 5505 5501 5484 5501 5502 5502 5493 5492 5497 5503 5513 5516 5516 5516 5516 5522 5531 5535 5543 5557 5569 5585 5604 5625 5637 5651 5665 5673 5675 5680 5684 5689 5689 5693 5688 5684 5682
5471 5472 5464 5468 5470 5471 5501 5491 5479 5487 5496 5492 5495 5496 5501 5506 5507 5503 5511 5512 5513 5518 5524 5532 5538 5551 5563 5578 5591 5607 5622 5636 5643 5652 5663 5670 5672 5677 5679 5685 5681 5680 5680 5676
5456 5457 5446 5456 5465 5491 5491 5487 5489 5477 5481 5487 5492 5499 5499 5497 5502 5503 5511 5513 5516 5522 5533 5536 5542 5554 5569 5580 5594 5612 5624 5633 5638 5642 5656 5660 5667 5667 5675 5677 5675 5673 5671 5668
5462 5462 5454 5459 5489 5482 5482 5487 5488 5483 5484 5486 5486 5484 5486 5488 5490 5499 5506 5513 5522 5531 5542 5544 5546 5553 5564 5581 5597 5612 5625 5630 5631 5634 5644 5648 5652 5660 5666 5668 5669 5668 5665 5662
5463 5460 5461 5463 5473 5470 5479 5487 5484 5481 5479 5479 5476 5477 5476 5479 5488 5493 5506 5520 5533 5542 5548 5552 5553 5559 5569 5582 5597 5613 5630 5629 5635 5641 5643 5639 5643 5653 5654 5649 5655 5663 5660 5661
5458 5460 5460 5468 5471 5465 5474 5481 5479 5471 5471 5470 5468 5475 5485 5484 5489 5492 5508 5525 5542 5548 5553 5554 5557 5563 5572 5585 5598 5611 5620 5628 5630 5641 5638 5634 5644 5647 5650 5650 5645 5640 5643 5646